owner,sensor,date,latitude,longitude,vertical_datum,sea_water_temperature,qcFlag 
ENP,ioos.station.NOAA.NDBC:CNBF1:1,2019-03-01T00:00:00Z,25.7020,-81.1860,1.0,28.3,11111222 
ENP,ioos.station.NOAA.NDBC:CNBF1:1,2019-03-01T01:00:00Z,25.7020,-81.1860,1.0,28.2,11111222 
ENP,ioos.station.NOAA.NDBC:CNBF1:1,2019-03-01T02:00:00Z,25.7020,-81.1860,1.0,27.9,11111222 
ENP,ioos.station.NOAA.NDBC:CNBF1:1,2019-03-01T03:00:00Z,25.7020,-81.1860,1.0,27.72,11111222 
ENP,ioos.station.NOAA.NDBC:CNBF1:1,2019-03-01T04:00:00Z,25.7020,-81.1860,1.0,27.5,11111222 
ENP,ioos.station.NOAA.NDBC:CNBF1:1,2019-03-01T05:00:00Z,25.7020,-81.1860,1.0,27.32,11111222 
ENP,ioos.station.NOAA.NDBC:CNBF1:1,2019-03-01T06:00:00Z,25.7020,-81.1860,1.0,27.15,11111222 
ENP,ioos.station.NOAA.NDBC:CNBF1:1,2019-03-01T07:00:00Z,25.7020,-81.1860,1.0,27.01,11111222 
ENP,ioos.station.NOAA.NDBC:CNBF1:1,2019-03-01T08:00:00Z,25.7020,-81.1860,1.0,26.86,11111222 
ENP,ioos.station.NOAA.NDBC:CNBF1:1,2019-03-01T09:00:00Z,25.7020,-81.1860,1.0,26.71,11111222 
ENP,ioos.station.NOAA.NDBC:CNBF1:1,2019-03-01T10:00:00Z,25.7020,-81.1860,1.0,26.53,11111222 
ENP,ioos.station.NOAA.NDBC:CNBF1:1,2019-03-01T11:00:00Z,25.7020,-81.1860,1.0,26.37,11111222 
ENP,ioos.station.NOAA.NDBC:CNBF1:1,2019-03-01T12:00:00Z,25.7020,-81.1860,1.0,26.22,11111222 
ENP,ioos.station.NOAA.NDBC:CNBF1:1,2019-03-01T13:00:00Z,25.7020,-81.1860,1.0,26.08,11111222 
ENP,ioos.station.NOAA.NDBC:CNBF1:1,2019-03-01T14:00:00Z,25.7020,-81.1860,1.0,26.01,11111222 
ENP,ioos.station.NOAA.NDBC:CNBF1:1,2019-03-01T15:00:00Z,25.7020,-81.1860,1.0,26.02,11111222 
ENP,ioos.station.NOAA.NDBC:CNBF1:1,2019-03-01T16:00:00Z,25.7020,-81.1860,1.0,26.28,11111222 
ENP,ioos.station.NOAA.NDBC:CNBF1:1,2019-03-01T17:00:00Z,25.7020,-81.1860,1.0,26.53,11111222 
ENP,ioos.station.NOAA.NDBC:CNBF1:1,2019-03-01T18:00:00Z,25.7020,-81.1860,1.0,26.81,11111222 
ENP,ioos.station.NOAA.NDBC:CNBF1:1,2019-03-01T19:00:00Z,25.7020,-81.1860,1.0,27.28,11111222 
ENP,ioos.station.NOAA.NDBC:CNBF1:1,2019-03-01T20:00:00Z,25.7020,-81.1860,1.0,28.17,11111222 
ENP,ioos.station.NOAA.NDBC:CNBF1:1,2019-03-01T21:00:00Z,25.7020,-81.1860,1.0,28.7,11111222 
ENP,ioos.station.NOAA.NDBC:CNBF1:1,2019-03-01T22:00:00Z,25.7020,-81.1860,1.0,28.84,11111222 
ENP,ioos.station.NOAA.NDBC:CNBF1:1,2019-03-01T23:00:00Z,25.7020,-81.1860,1.0,28.83,11111222 
ENP,ioos.station.NOAA.NDBC:CNBF1:1,2019-03-02T00:00:00Z,25.7020,-81.1860,1.0,28.77,11111222 
ENP,ioos.station.NOAA.NDBC:CNBF1:1,2019-03-02T01:00:00Z,25.7020,-81.1860,1.0,28.66,11111222 
ENP,ioos.station.NOAA.NDBC:CNBF1:1,2019-03-02T02:00:00Z,25.7020,-81.1860,1.0,28.5,11111222 
ENP,ioos.station.NOAA.NDBC:CNBF1:1,2019-03-02T03:00:00Z,25.7020,-81.1860,1.0,28.31,11111222 
ENP,ioos.station.NOAA.NDBC:CNBF1:1,2019-03-02T04:00:00Z,25.7020,-81.1860,1.0,28.1,11111222 
ENP,ioos.station.NOAA.NDBC:CNBF1:1,2019-03-02T05:00:00Z,25.7020,-81.1860,1.0,27.88,11111222 
ENP,ioos.station.NOAA.NDBC:CNBF1:1,2019-03-02T06:00:00Z,25.7020,-81.1860,1.0,27.73,11111222 
ENP,ioos.station.NOAA.NDBC:CNBF1:1,2019-03-02T07:00:00Z,25.7020,-81.1860,1.0,27.57,11111222 
ENP,ioos.station.NOAA.NDBC:CNBF1:1,2019-03-02T08:00:00Z,25.7020,-81.1860,1.0,27.43,11111222 
ENP,ioos.station.NOAA.NDBC:CNBF1:1,2019-03-02T09:00:00Z,25.7020,-81.1860,1.0,27.3,11111222 
ENP,ioos.station.NOAA.NDBC:CNBF1:1,2019-03-02T10:00:00Z,25.7020,-81.1860,1.0,27.19,11111222 
ENP,ioos.station.NOAA.NDBC:CNBF1:1,2019-03-02T11:00:00Z,25.7020,-81.1860,1.0,27.06,11111222 
ENP,ioos.station.NOAA.NDBC:CNBF1:1,2019-03-02T12:00:00Z,25.7020,-81.1860,1.0,26.95,11111222 
ENP,ioos.station.NOAA.NDBC:CNBF1:1,2019-03-02T13:00:00Z,25.7020,-81.1860,1.0,26.79,11111222 
ENP,ioos.station.NOAA.NDBC:CNBF1:1,2019-03-02T14:00:00Z,25.7020,-81.1860,1.0,26.68,11111222 
ENP,ioos.station.NOAA.NDBC:CNBF1:1,2019-03-02T15:00:00Z,25.7020,-81.1860,1.0,26.62,11111222 
ENP,ioos.station.NOAA.NDBC:CNBF1:1,2019-03-02T16:00:00Z,25.7020,-81.1860,1.0,26.76,11111222 
ENP,ioos.station.NOAA.NDBC:CNBF1:1,2019-03-02T17:00:00Z,25.7020,-81.1860,1.0,27.32,11111222 
ENP,ioos.station.NOAA.NDBC:CNBF1:1,2019-03-02T18:00:00Z,25.7020,-81.1860,1.0,28.14,11111222 
ENP,ioos.station.NOAA.NDBC:CNBF1:1,2019-03-02T19:00:00Z,25.7020,-81.1860,1.0,28.82,11111222 
ENP,ioos.station.NOAA.NDBC:CNBF1:1,2019-03-02T20:00:00Z,25.7020,-81.1860,1.0,29.44,11111222 
ENP,ioos.station.NOAA.NDBC:CNBF1:1,2019-03-02T21:00:00Z,25.7020,-81.1860,1.0,29.74,11111222 
ENP,ioos.station.NOAA.NDBC:CNBF1:1,2019-03-02T22:00:00Z,25.7020,-81.1860,1.0,29.97,11111222 
ENP,ioos.station.NOAA.NDBC:CNBF1:1,2019-03-02T23:00:00Z,25.7020,-81.1860,1.0,30.02,11111222 
ENP,ioos.station.NOAA.NDBC:CNBF1:1,2019-03-03T00:00:00Z,25.7020,-81.1860,1.0,29.94,11111222 
ENP,ioos.station.NOAA.NDBC:CNBF1:1,2019-03-03T01:00:00Z,25.7020,-81.1860,1.0,29.52,11111222 
ENP,ioos.station.NOAA.NDBC:CNBF1:1,2019-03-03T02:00:00Z,25.7020,-81.1860,1.0,29.1,11111222 
ENP,ioos.station.NOAA.NDBC:CNBF1:1,2019-03-03T03:00:00Z,25.7020,-81.1860,1.0,28.84,11111222 
ENP,ioos.station.NOAA.NDBC:CNBF1:1,2019-03-03T04:00:00Z,25.7020,-81.1860,1.0,28.6,11111222 
ENP,ioos.station.NOAA.NDBC:CNBF1:1,2019-03-03T05:00:00Z,25.7020,-81.1860,1.0,28.41,11111222 
ENP,ioos.station.NOAA.NDBC:CNBF1:1,2019-03-03T06:00:00Z,25.7020,-81.1860,1.0,28.25,11111222 
ENP,ioos.station.NOAA.NDBC:CNBF1:1,2019-03-03T07:00:00Z,25.7020,-81.1860,1.0,28.07,11111222 
ENP,ioos.station.NOAA.NDBC:CNBF1:1,2019-03-03T08:00:00Z,25.7020,-81.1860,1.0,27.96,11111222 
ENP,ioos.station.NOAA.NDBC:CNBF1:1,2019-03-03T09:00:00Z,25.7020,-81.1860,1.0,27.83,11111222 
ENP,ioos.station.NOAA.NDBC:CNBF1:1,2019-03-03T10:00:00Z,25.7020,-81.1860,1.0,27.69,11111222 
ENP,ioos.station.NOAA.NDBC:CNBF1:1,2019-03-03T11:00:00Z,25.7020,-81.1860,1.0,27.53,11111222 
ENP,ioos.station.NOAA.NDBC:CNBF1:1,2019-03-03T12:00:00Z,25.7020,-81.1860,1.0,27.37,11111222 
ENP,ioos.station.NOAA.NDBC:CNBF1:1,2019-03-03T13:00:00Z,25.7020,-81.1860,1.0,27.22,11111222 
ENP,ioos.station.NOAA.NDBC:CNBF1:1,2019-03-03T14:00:00Z,25.7020,-81.1860,1.0,27.16,11111222 
ENP,ioos.station.NOAA.NDBC:CNBF1:1,2019-03-03T15:00:00Z,25.7020,-81.1860,1.0,27.23,11111222 
ENP,ioos.station.NOAA.NDBC:CNBF1:1,2019-03-03T16:00:00Z,25.7020,-81.1860,1.0,27.52,11111222 
ENP,ioos.station.NOAA.NDBC:CNBF1:1,2019-03-03T17:00:00Z,25.7020,-81.1860,1.0,27.93,11111222 
ENP,ioos.station.NOAA.NDBC:CNBF1:1,2019-03-03T18:00:00Z,25.7020,-81.1860,1.0,28.0,11111222 
ENP,ioos.station.NOAA.NDBC:CNBF1:1,2019-03-03T19:00:00Z,25.7020,-81.1860,1.0,28.02,11111222 
ENP,ioos.station.NOAA.NDBC:CNBF1:1,2019-03-03T20:00:00Z,25.7020,-81.1860,1.0,28.19,11111222 
ENP,ioos.station.NOAA.NDBC:CNBF1:1,2019-03-03T21:00:00Z,25.7020,-81.1860,1.0,28.39,11111222 
ENP,ioos.station.NOAA.NDBC:CNBF1:1,2019-03-03T22:00:00Z,25.7020,-81.1860,1.0,28.49,11111222 
ENP,ioos.station.NOAA.NDBC:CNBF1:1,2019-03-03T23:00:00Z,25.7020,-81.1860,1.0,28.54,11111222 
ENP,ioos.station.NOAA.NDBC:CNBF1:1,2019-03-04T00:00:00Z,25.7020,-81.1860,1.0,28.5,11111222 
ENP,ioos.station.NOAA.NDBC:CNBF1:1,2019-03-04T01:00:00Z,25.7020,-81.1860,1.0,28.42,11111222 
ENP,ioos.station.NOAA.NDBC:CNBF1:1,2019-03-04T02:00:00Z,25.7020,-81.1860,1.0,28.3,11111222 
ENP,ioos.station.NOAA.NDBC:CNBF1:1,2019-03-04T03:00:00Z,25.7020,-81.1860,1.0,28.16,11111222 
ENP,ioos.station.NOAA.NDBC:CNBF1:1,2019-03-04T04:00:00Z,25.7020,-81.1860,1.0,28.0,11111222 
ENP,ioos.station.NOAA.NDBC:CNBF1:1,2019-03-04T05:00:00Z,25.7020,-81.1860,1.0,27.89,11111222 
ENP,ioos.station.NOAA.NDBC:CNBF1:1,2019-03-04T06:00:00Z,25.7020,-81.1860,1.0,27.8,11111222 
ENP,ioos.station.NOAA.NDBC:CNBF1:1,2019-03-04T07:00:00Z,25.7020,-81.1860,1.0,27.68,11111222 
ENP,ioos.station.NOAA.NDBC:CNBF1:1,2019-03-04T08:00:00Z,25.7020,-81.1860,1.0,27.55,11111222 
ENP,ioos.station.NOAA.NDBC:CNBF1:1,2019-03-04T09:00:00Z,25.7020,-81.1860,1.0,27.43,11111222 
ENP,ioos.station.NOAA.NDBC:CNBF1:1,2019-03-04T10:00:00Z,25.7020,-81.1860,1.0,27.33,11111222 
ENP,ioos.station.NOAA.NDBC:CNBF1:1,2019-03-04T11:00:00Z,25.7020,-81.1860,1.0,27.21,11111222 
ENP,ioos.station.NOAA.NDBC:CNBF1:1,2019-03-04T12:00:00Z,25.7020,-81.1860,1.0,27.07,11111222 
ENP,ioos.station.NOAA.NDBC:CNBF1:1,2019-03-04T13:00:00Z,25.7020,-81.1860,1.0,26.93,11111222 
ENP,ioos.station.NOAA.NDBC:CNBF1:1,2019-03-04T14:00:00Z,25.7020,-81.1860,1.0,26.78,11111222 
ENP,ioos.station.NOAA.NDBC:CNBF1:1,2019-03-04T15:00:00Z,25.7020,-81.1860,1.0,26.7,11111222 
ENP,ioos.station.NOAA.NDBC:CNBF1:1,2019-03-04T16:00:00Z,25.7020,-81.1860,1.0,26.83,11111222 
ENP,ioos.station.NOAA.NDBC:CNBF1:1,2019-03-04T17:00:00Z,25.7020,-81.1860,1.0,27.3,11111222 
ENP,ioos.station.NOAA.NDBC:CNBF1:1,2019-03-04T18:00:00Z,25.7020,-81.1860,1.0,27.75,11111222 
ENP,ioos.station.NOAA.NDBC:CNBF1:1,2019-03-04T19:00:00Z,25.7020,-81.1860,1.0,28.11,11111222 
ENP,ioos.station.NOAA.NDBC:CNBF1:1,2019-03-04T20:00:00Z,25.7020,-81.1860,1.0,28.46,11111222 
ENP,ioos.station.NOAA.NDBC:CNBF1:1,2019-03-04T21:00:00Z,25.7020,-81.1860,1.0,28.74,11111222 
ENP,ioos.station.NOAA.NDBC:CNBF1:1,2019-03-04T22:00:00Z,25.7020,-81.1860,1.0,28.88,11111222 
ENP,ioos.station.NOAA.NDBC:CNBF1:1,2019-03-04T23:00:00Z,25.7020,-81.1860,1.0,28.93,11111222 
ENP,ioos.station.NOAA.NDBC:CNBF1:1,2019-03-05T00:00:00Z,25.7020,-81.1860,1.0,28.86,11111222 
ENP,ioos.station.NOAA.NDBC:CNBF1:1,2019-03-05T01:00:00Z,25.7020,-81.1860,1.0,28.74,11111222 
ENP,ioos.station.NOAA.NDBC:CNBF1:1,2019-03-05T02:00:00Z,25.7020,-81.1860,1.0,28.6,11111222 
ENP,ioos.station.NOAA.NDBC:CNBF1:1,2019-03-05T03:00:00Z,25.7020,-81.1860,1.0,28.45,11111222 
ENP,ioos.station.NOAA.NDBC:CNBF1:1,2019-03-05T04:00:00Z,25.7020,-81.1860,1.0,28.3,11111222 
ENP,ioos.station.NOAA.NDBC:CNBF1:1,2019-03-05T05:00:00Z,25.7020,-81.1860,1.0,28.16,11111222 
ENP,ioos.station.NOAA.NDBC:CNBF1:1,2019-03-05T06:00:00Z,25.7020,-81.1860,1.0,28.04,11111222 
ENP,ioos.station.NOAA.NDBC:CNBF1:1,2019-03-05T07:00:00Z,25.7020,-81.1860,1.0,27.94,11111222 
ENP,ioos.station.NOAA.NDBC:CNBF1:1,2019-03-05T08:00:00Z,25.7020,-81.1860,1.0,27.83,11111222 
ENP,ioos.station.NOAA.NDBC:CNBF1:1,2019-03-05T09:00:00Z,25.7020,-81.1860,1.0,27.72,11111222 
ENP,ioos.station.NOAA.NDBC:CNBF1:1,2019-03-05T10:00:00Z,25.7020,-81.1860,1.0,27.59,11111222 
ENP,ioos.station.NOAA.NDBC:CNBF1:1,2019-03-05T11:00:00Z,25.7020,-81.1860,1.0,27.42,11111222 
ENP,ioos.station.NOAA.NDBC:CNBF1:1,2019-03-05T12:00:00Z,25.7020,-81.1860,1.0,27.25,11111222 
ENP,ioos.station.NOAA.NDBC:CNBF1:1,2019-03-05T13:00:00Z,25.7020,-81.1860,1.0,27.09,11111222 
ENP,ioos.station.NOAA.NDBC:CNBF1:1,2019-03-05T14:00:00Z,25.7020,-81.1860,1.0,27.0,11111222 
ENP,ioos.station.NOAA.NDBC:CNBF1:1,2019-03-05T15:00:00Z,25.7020,-81.1860,1.0,26.96,11111222 
ENP,ioos.station.NOAA.NDBC:CNBF1:1,2019-03-05T16:00:00Z,25.7020,-81.1860,1.0,27.06,11111222 
ENP,ioos.station.NOAA.NDBC:CNBF1:1,2019-03-05T17:00:00Z,25.7020,-81.1860,1.0,27.81,11111222 
ENP,ioos.station.NOAA.NDBC:CNBF1:1,2019-03-05T18:00:00Z,25.7020,-81.1860,1.0,28.42,11111222 
ENP,ioos.station.NOAA.NDBC:CNBF1:1,2019-03-05T19:00:00Z,25.7020,-81.1860,1.0,28.58,11111222 
ENP,ioos.station.NOAA.NDBC:CNBF1:1,2019-03-05T20:00:00Z,25.7020,-81.1860,1.0,28.7,11111222 
ENP,ioos.station.NOAA.NDBC:CNBF1:1,2019-03-05T21:00:00Z,25.7020,-81.1860,1.0,28.8,11111222 
ENP,ioos.station.NOAA.NDBC:CNBF1:1,2019-03-05T22:00:00Z,25.7020,-81.1860,1.0,28.81,11111222 
ENP,ioos.station.NOAA.NDBC:CNBF1:1,2019-03-05T23:00:00Z,25.7020,-81.1860,1.0,28.71,11111222 
ENP,ioos.station.NOAA.NDBC:CNBF1:1,2019-03-06T00:00:00Z,25.7020,-81.1860,1.0,28.56,11111222 
ENP,ioos.station.NOAA.NDBC:CNBF1:1,2019-03-06T01:00:00Z,25.7020,-81.1860,1.0,28.34,11111222 
ENP,ioos.station.NOAA.NDBC:CNBF1:1,2019-03-06T02:00:00Z,25.7020,-81.1860,1.0,28.1,11111222 
ENP,ioos.station.NOAA.NDBC:CNBF1:1,2019-03-06T03:00:00Z,25.7020,-81.1860,1.0,27.78,11111222 
ENP,ioos.station.NOAA.NDBC:CNBF1:1,2019-03-06T04:00:00Z,25.7020,-81.1860,1.0,27.5,11111222 
ENP,ioos.station.NOAA.NDBC:CNBF1:1,2019-03-06T05:00:00Z,25.7020,-81.1860,1.0,27.25,11111222 
ENP,ioos.station.NOAA.NDBC:CNBF1:1,2019-03-06T06:00:00Z,25.7020,-81.1860,1.0,26.93,11111222 
ENP,ioos.station.NOAA.NDBC:CNBF1:1,2019-03-06T07:00:00Z,25.7020,-81.1860,1.0,26.53,11111222 
ENP,ioos.station.NOAA.NDBC:CNBF1:1,2019-03-06T08:00:00Z,25.7020,-81.1860,1.0,26.18,11111222 
ENP,ioos.station.NOAA.NDBC:CNBF1:1,2019-03-06T09:00:00Z,25.7020,-81.1860,1.0,25.82,11111222 
ENP,ioos.station.NOAA.NDBC:CNBF1:1,2019-03-06T10:00:00Z,25.7020,-81.1860,1.0,25.46,11111222 
ENP,ioos.station.NOAA.NDBC:CNBF1:1,2019-03-06T11:00:00Z,25.7020,-81.1860,1.0,25.14,11111222 
ENP,ioos.station.NOAA.NDBC:CNBF1:1,2019-03-06T12:00:00Z,25.7020,-81.1860,1.0,24.77,11111222 
ENP,ioos.station.NOAA.NDBC:CNBF1:1,2019-03-06T13:00:00Z,25.7020,-81.1860,1.0,24.37,11111222 
ENP,ioos.station.NOAA.NDBC:CNBF1:1,2019-03-06T14:00:00Z,25.7020,-81.1860,1.0,24.03,11111222 
ENP,ioos.station.NOAA.NDBC:CNBF1:1,2019-03-06T15:00:00Z,25.7020,-81.1860,1.0,23.74,11111222 
ENP,ioos.station.NOAA.NDBC:CNBF1:1,2019-03-06T16:00:00Z,25.7020,-81.1860,1.0,23.6,11111222 
ENP,ioos.station.NOAA.NDBC:CNBF1:1,2019-03-06T17:00:00Z,25.7020,-81.1860,1.0,23.61,11111222 
ENP,ioos.station.NOAA.NDBC:CNBF1:1,2019-03-06T18:00:00Z,25.7020,-81.1860,1.0,23.77,11111222 
ENP,ioos.station.NOAA.NDBC:CNBF1:1,2019-03-06T19:00:00Z,25.7020,-81.1860,1.0,24.05,11111222 
ENP,ioos.station.NOAA.NDBC:CNBF1:1,2019-03-06T20:00:00Z,25.7020,-81.1860,1.0,24.32,11111222 
ENP,ioos.station.NOAA.NDBC:CNBF1:1,2019-03-06T21:00:00Z,25.7020,-81.1860,1.0,24.55,11111222 
ENP,ioos.station.NOAA.NDBC:CNBF1:1,2019-03-06T22:00:00Z,25.7020,-81.1860,1.0,24.71,11111222 
ENP,ioos.station.NOAA.NDBC:CNBF1:1,2019-03-06T23:00:00Z,25.7020,-81.1860,1.0,24.79,11111222 
ENP,ioos.station.NOAA.NDBC:CNBF1:1,2019-03-07T00:00:00Z,25.7020,-81.1860,1.0,24.71,11111222 
ENP,ioos.station.NOAA.NDBC:CNBF1:1,2019-03-07T01:00:00Z,25.7020,-81.1860,1.0,24.52,11111222 
ENP,ioos.station.NOAA.NDBC:CNBF1:1,2019-03-07T02:00:00Z,25.7020,-81.1860,1.0,24.27,11111222 
ENP,ioos.station.NOAA.NDBC:CNBF1:1,2019-03-07T03:00:00Z,25.7020,-81.1860,1.0,24.02,11111222 
ENP,ioos.station.NOAA.NDBC:CNBF1:1,2019-03-07T04:00:00Z,25.7020,-81.1860,1.0,23.8,11111222 
ENP,ioos.station.NOAA.NDBC:CNBF1:1,2019-03-07T05:00:00Z,25.7020,-81.1860,1.0,23.46,11111222 
ENP,ioos.station.NOAA.NDBC:CNBF1:1,2019-03-07T06:00:00Z,25.7020,-81.1860,1.0,23.15,11111222 
ENP,ioos.station.NOAA.NDBC:CNBF1:1,2019-03-07T07:00:00Z,25.7020,-81.1860,1.0,22.81,11111222 
ENP,ioos.station.NOAA.NDBC:CNBF1:1,2019-03-07T08:00:00Z,25.7020,-81.1860,1.0,22.52,11111222 
ENP,ioos.station.NOAA.NDBC:CNBF1:1,2019-03-07T09:00:00Z,25.7020,-81.1860,1.0,22.23,11111222 
ENP,ioos.station.NOAA.NDBC:CNBF1:1,2019-03-07T10:00:00Z,25.7020,-81.1860,1.0,21.95,11111222 
ENP,ioos.station.NOAA.NDBC:CNBF1:1,2019-03-07T11:00:00Z,25.7020,-81.1860,1.0,21.69,11111222 
ENP,ioos.station.NOAA.NDBC:CNBF1:1,2019-03-07T12:00:00Z,25.7020,-81.1860,1.0,21.5,11111222 
ENP,ioos.station.NOAA.NDBC:CNBF1:1,2019-03-07T13:00:00Z,25.7020,-81.1860,1.0,21.3,11111222 
ENP,ioos.station.NOAA.NDBC:CNBF1:1,2019-03-07T14:00:00Z,25.7020,-81.1860,1.0,21.17,11111222 
ENP,ioos.station.NOAA.NDBC:CNBF1:1,2019-03-07T15:00:00Z,25.7020,-81.1860,1.0,21.16,11111222 
ENP,ioos.station.NOAA.NDBC:CNBF1:1,2019-03-07T16:00:00Z,25.7020,-81.1860,1.0,21.32,11111222 
ENP,ioos.station.NOAA.NDBC:CNBF1:1,2019-03-07T17:00:00Z,25.7020,-81.1860,1.0,21.63,11111222 
ENP,ioos.station.NOAA.NDBC:CNBF1:1,2019-03-07T18:00:00Z,25.7020,-81.1860,1.0,22.06,11111222 
ENP,ioos.station.NOAA.NDBC:CNBF1:1,2019-03-07T19:00:00Z,25.7020,-81.1860,1.0,22.62,11111222 
ENP,ioos.station.NOAA.NDBC:CNBF1:1,2019-03-07T20:00:00Z,25.7020,-81.1860,1.0,22.93,11111222 
ENP,ioos.station.NOAA.NDBC:CNBF1:1,2019-03-07T21:00:00Z,25.7020,-81.1860,1.0,23.21,11111222 
ENP,ioos.station.NOAA.NDBC:CNBF1:1,2019-03-07T22:00:00Z,25.7020,-81.1860,1.0,23.44,11111222 
ENP,ioos.station.NOAA.NDBC:CNBF1:1,2019-03-07T23:00:00Z,25.7020,-81.1860,1.0,23.57,11111222 
ENP,ioos.station.NOAA.NDBC:CNBF1:1,2019-03-08T00:00:00Z,25.7020,-81.1860,1.0,23.58,11111222 
ENP,ioos.station.NOAA.NDBC:CNBF1:1,2019-03-08T01:00:00Z,25.7020,-81.1860,1.0,23.46,11111222 
ENP,ioos.station.NOAA.NDBC:CNBF1:1,2019-03-08T02:00:00Z,25.7020,-81.1860,1.0,23.29,11111222 
ENP,ioos.station.NOAA.NDBC:CNBF1:1,2019-03-08T03:00:00Z,25.7020,-81.1860,1.0,23.11,11111222 
ENP,ioos.station.NOAA.NDBC:CNBF1:1,2019-03-08T04:00:00Z,25.7020,-81.1860,1.0,22.9,11111222 
ENP,ioos.station.NOAA.NDBC:CNBF1:1,2019-03-08T05:00:00Z,25.7020,-81.1860,1.0,22.73,11111222 
ENP,ioos.station.NOAA.NDBC:CNBF1:1,2019-03-08T06:00:00Z,25.7020,-81.1860,1.0,22.55,11111222 
ENP,ioos.station.NOAA.NDBC:CNBF1:1,2019-03-08T07:00:00Z,25.7020,-81.1860,1.0,22.35,11111222 
ENP,ioos.station.NOAA.NDBC:CNBF1:1,2019-03-08T08:00:00Z,25.7020,-81.1860,1.0,22.14,11111222 
ENP,ioos.station.NOAA.NDBC:CNBF1:1,2019-03-08T09:00:00Z,25.7020,-81.1860,1.0,21.99,11111222 
ENP,ioos.station.NOAA.NDBC:CNBF1:1,2019-03-08T10:00:00Z,25.7020,-81.1860,1.0,21.8,11111222 
ENP,ioos.station.NOAA.NDBC:CNBF1:1,2019-03-08T11:00:00Z,25.7020,-81.1860,1.0,21.66,11111222 
ENP,ioos.station.NOAA.NDBC:CNBF1:1,2019-03-08T12:00:00Z,25.7020,-81.1860,1.0,21.53,11111222 
ENP,ioos.station.NOAA.NDBC:CNBF1:1,2019-03-08T13:00:00Z,25.7020,-81.1860,1.0,21.4,11111222 
ENP,ioos.station.NOAA.NDBC:CNBF1:1,2019-03-08T14:00:00Z,25.7020,-81.1860,1.0,21.3,11111222 
ENP,ioos.station.NOAA.NDBC:CNBF1:1,2019-03-08T15:00:00Z,25.7020,-81.1860,1.0,21.37,11111222 
ENP,ioos.station.NOAA.NDBC:CNBF1:1,2019-03-08T16:00:00Z,25.7020,-81.1860,1.0,21.56,11111222 
ENP,ioos.station.NOAA.NDBC:CNBF1:1,2019-03-08T17:00:00Z,25.7020,-81.1860,1.0,21.9,11111222 
ENP,ioos.station.NOAA.NDBC:CNBF1:1,2019-03-08T18:00:00Z,25.7020,-81.1860,1.0,22.28,11111222 
ENP,ioos.station.NOAA.NDBC:CNBF1:1,2019-03-08T19:00:00Z,25.7020,-81.1860,1.0,22.59,11111222 
ENP,ioos.station.NOAA.NDBC:CNBF1:1,2019-03-08T20:00:00Z,25.7020,-81.1860,1.0,22.82,11111222 
ENP,ioos.station.NOAA.NDBC:CNBF1:1,2019-03-08T21:00:00Z,25.7020,-81.1860,1.0,23.04,11111222 
ENP,ioos.station.NOAA.NDBC:CNBF1:1,2019-03-08T22:00:00Z,25.7020,-81.1860,1.0,23.15,11111222 
ENP,ioos.station.NOAA.NDBC:CNBF1:1,2019-03-08T23:00:00Z,25.7020,-81.1860,1.0,23.16,11111222 
ENP,ioos.station.NOAA.NDBC:CNBF1:1,2019-03-09T00:00:00Z,25.7020,-81.1860,1.0,23.17,11111222 
ENP,ioos.station.NOAA.NDBC:CNBF1:1,2019-03-09T01:00:00Z,25.7020,-81.1860,1.0,23.15,11111222 
ENP,ioos.station.NOAA.NDBC:CNBF1:1,2019-03-09T02:00:00Z,25.7020,-81.1860,1.0,23.1,11111222 
ENP,ioos.station.NOAA.NDBC:CNBF1:1,2019-03-09T03:00:00Z,25.7020,-81.1860,1.0,23.04,11111222 
ENP,ioos.station.NOAA.NDBC:CNBF1:1,2019-03-09T04:00:00Z,25.7020,-81.1860,1.0,23.0,11111222 
ENP,ioos.station.NOAA.NDBC:CNBF1:1,2019-03-09T05:00:00Z,25.7020,-81.1860,1.0,22.86,11111222 
ENP,ioos.station.NOAA.NDBC:CNBF1:1,2019-03-09T06:00:00Z,25.7020,-81.1860,1.0,22.77,11111222 
ENP,ioos.station.NOAA.NDBC:CNBF1:1,2019-03-09T07:00:00Z,25.7020,-81.1860,1.0,22.65,11111222 
ENP,ioos.station.NOAA.NDBC:CNBF1:1,2019-03-09T08:00:00Z,25.7020,-81.1860,1.0,22.53,11111222 
ENP,ioos.station.NOAA.NDBC:CNBF1:1,2019-03-09T09:00:00Z,25.7020,-81.1860,1.0,22.43,11111222 
ENP,ioos.station.NOAA.NDBC:CNBF1:1,2019-03-09T10:00:00Z,25.7020,-81.1860,1.0,22.35,11111222 
ENP,ioos.station.NOAA.NDBC:CNBF1:1,2019-03-09T11:00:00Z,25.7020,-81.1860,1.0,22.27,11111222 
ENP,ioos.station.NOAA.NDBC:CNBF1:1,2019-03-09T12:00:00Z,25.7020,-81.1860,1.0,22.21,11111222 
ENP,ioos.station.NOAA.NDBC:CNBF1:1,2019-03-09T13:00:00Z,25.7020,-81.1860,1.0,22.15,11111222 
ENP,ioos.station.NOAA.NDBC:CNBF1:1,2019-03-09T14:00:00Z,25.7020,-81.1860,1.0,22.11,11111222 
ENP,ioos.station.NOAA.NDBC:CNBF1:1,2019-03-09T15:00:00Z,25.7020,-81.1860,1.0,22.15,11111222 
ENP,ioos.station.NOAA.NDBC:CNBF1:1,2019-03-09T16:00:00Z,25.7020,-81.1860,1.0,22.42,11111222 
ENP,ioos.station.NOAA.NDBC:CNBF1:1,2019-03-09T17:00:00Z,25.7020,-81.1860,1.0,22.82,11111222 
ENP,ioos.station.NOAA.NDBC:CNBF1:1,2019-03-09T18:00:00Z,25.7020,-81.1860,1.0,23.34,11111222 
ENP,ioos.station.NOAA.NDBC:CNBF1:1,2019-03-09T19:00:00Z,25.7020,-81.1860,1.0,23.82,11111222 
ENP,ioos.station.NOAA.NDBC:CNBF1:1,2019-03-09T20:00:00Z,25.7020,-81.1860,1.0,24.19,11111222 
ENP,ioos.station.NOAA.NDBC:CNBF1:1,2019-03-09T21:00:00Z,25.7020,-81.1860,1.0,24.33,11111222 
ENP,ioos.station.NOAA.NDBC:CNBF1:1,2019-03-09T22:00:00Z,25.7020,-81.1860,1.0,24.45,11111222 
ENP,ioos.station.NOAA.NDBC:CNBF1:1,2019-03-09T23:00:00Z,25.7020,-81.1860,1.0,24.46,11111222 
ENP,ioos.station.NOAA.NDBC:CNBF1:1,2019-03-10T00:00:00Z,25.7020,-81.1860,1.0,24.37,11111222 
ENP,ioos.station.NOAA.NDBC:CNBF1:1,2019-03-10T01:00:00Z,25.7020,-81.1860,1.0,24.29,11111222 
ENP,ioos.station.NOAA.NDBC:CNBF1:1,2019-03-10T02:00:00Z,25.7020,-81.1860,1.0,24.22,11111222 
ENP,ioos.station.NOAA.NDBC:CNBF1:1,2019-03-10T03:00:00Z,25.7020,-81.1860,1.0,24.1,11111222 
ENP,ioos.station.NOAA.NDBC:CNBF1:1,2019-03-10T04:00:00Z,25.7020,-81.1860,1.0,24.01,11111222 
ENP,ioos.station.NOAA.NDBC:CNBF1:1,2019-03-10T05:00:00Z,25.7020,-81.1860,1.0,23.92,11111222 
ENP,ioos.station.NOAA.NDBC:CNBF1:1,2019-03-10T06:00:00Z,25.7020,-81.1860,1.0,23.85,11111222 
ENP,ioos.station.NOAA.NDBC:CNBF1:1,2019-03-10T08:00:00Z,25.7020,-81.1860,1.0,23.75,11111222 
ENP,ioos.station.NOAA.NDBC:CNBF1:1,2019-03-10T09:00:00Z,25.7020,-81.1860,1.0,23.68,11111222 
ENP,ioos.station.NOAA.NDBC:CNBF1:1,2019-03-10T10:00:00Z,25.7020,-81.1860,1.0,23.64,11111222 
ENP,ioos.station.NOAA.NDBC:CNBF1:1,2019-03-10T11:00:00Z,25.7020,-81.1860,1.0,23.58,11111222 
ENP,ioos.station.NOAA.NDBC:CNBF1:1,2019-03-10T12:00:00Z,25.7020,-81.1860,1.0,23.5,11111222 
ENP,ioos.station.NOAA.NDBC:CNBF1:1,2019-03-10T13:00:00Z,25.7020,-81.1860,1.0,23.43,11111222 
ENP,ioos.station.NOAA.NDBC:CNBF1:1,2019-03-10T14:00:00Z,25.7020,-81.1860,1.0,23.43,11111222 
ENP,ioos.station.NOAA.NDBC:CNBF1:1,2019-03-10T15:00:00Z,25.7020,-81.1860,1.0,23.6,11111222 
ENP,ioos.station.NOAA.NDBC:CNBF1:1,2019-03-10T16:00:00Z,25.7020,-81.1860,1.0,23.88,11111222 
ENP,ioos.station.NOAA.NDBC:CNBF1:1,2019-03-10T17:00:00Z,25.7020,-81.1860,1.0,24.13,11111222 
ENP,ioos.station.NOAA.NDBC:CNBF1:1,2019-03-10T18:00:00Z,25.7020,-81.1860,1.0,24.65,11111222 
ENP,ioos.station.NOAA.NDBC:CNBF1:1,2019-03-10T19:00:00Z,25.7020,-81.1860,1.0,25.19,11111222 
ENP,ioos.station.NOAA.NDBC:CNBF1:1,2019-03-10T20:00:00Z,25.7020,-81.1860,1.0,25.76,11111222 
ENP,ioos.station.NOAA.NDBC:CNBF1:1,2019-03-10T21:00:00Z,25.7020,-81.1860,1.0,26.22,11111222 
ENP,ioos.station.NOAA.NDBC:CNBF1:1,2019-03-10T22:00:00Z,25.7020,-81.1860,1.0,26.4,11111222 
ENP,ioos.station.NOAA.NDBC:CNBF1:1,2019-03-10T23:00:00Z,25.7020,-81.1860,1.0,26.5,11111222 
ENP,ioos.station.NOAA.NDBC:CNBF1:1,2019-03-11T00:00:00Z,25.7020,-81.1860,1.0,26.4,11111222 
ENP,ioos.station.NOAA.NDBC:CNBF1:1,2019-03-11T01:00:00Z,25.7020,-81.1860,1.0,26.3,11111222 
ENP,ioos.station.NOAA.NDBC:CNBF1:1,2019-03-11T02:00:00Z,25.7020,-81.1860,1.0,26.2,11111222 
ENP,ioos.station.NOAA.NDBC:CNBF1:1,2019-03-11T03:00:00Z,25.7020,-81.1860,1.0,26.0,11111222 
ENP,ioos.station.NOAA.NDBC:CNBF1:1,2019-03-11T04:00:00Z,25.7020,-81.1860,1.0,25.8,11111222 
ENP,ioos.station.NOAA.NDBC:CNBF1:1,2019-03-11T05:00:00Z,25.7020,-81.1860,1.0,25.66,11111222 
ENP,ioos.station.NOAA.NDBC:CNBF1:1,2019-03-11T06:00:00Z,25.7020,-81.1860,1.0,25.55,11111222 
ENP,ioos.station.NOAA.NDBC:CNBF1:1,2019-03-11T07:00:00Z,25.7020,-81.1860,1.0,25.43,11111222 
ENP,ioos.station.NOAA.NDBC:CNBF1:1,2019-03-11T08:00:00Z,25.7020,-81.1860,1.0,25.34,11111222 
ENP,ioos.station.NOAA.NDBC:CNBF1:1,2019-03-11T09:00:00Z,25.7020,-81.1860,1.0,25.21,11111222 
ENP,ioos.station.NOAA.NDBC:CNBF1:1,2019-03-11T10:00:00Z,25.7020,-81.1860,1.0,25.11,11111222 
ENP,ioos.station.NOAA.NDBC:CNBF1:1,2019-03-11T11:00:00Z,25.7020,-81.1860,1.0,25.03,11111222 
ENP,ioos.station.NOAA.NDBC:CNBF1:1,2019-03-11T12:00:00Z,25.7020,-81.1860,1.0,24.96,11111222 
ENP,ioos.station.NOAA.NDBC:CNBF1:1,2019-03-11T13:00:00Z,25.7020,-81.1860,1.0,24.89,11111222 
ENP,ioos.station.NOAA.NDBC:CNBF1:1,2019-03-11T14:00:00Z,25.7020,-81.1860,1.0,24.88,11111222 
ENP,ioos.station.NOAA.NDBC:CNBF1:1,2019-03-11T15:00:00Z,25.7020,-81.1860,1.0,24.95,11111222 
ENP,ioos.station.NOAA.NDBC:CNBF1:1,2019-03-11T16:00:00Z,25.7020,-81.1860,1.0,25.13,11111222 
ENP,ioos.station.NOAA.NDBC:CNBF1:1,2019-03-11T17:00:00Z,25.7020,-81.1860,1.0,25.37,11111222 